Tucumcari, NM

10:27 PM MDT on May 28, 2017 (GMT -0600)
Tucumcari Municipal

Weather History for KTCC - June, 2013

Change the Weather History Date:

Wednesday, June 12, 2013

  Actual Average Record
Temperature  
Mean Temperature 86 °F -  
Max Temperature 100 °F 89 °F 104 °F (1981)
Min Temperature 71 °F 58 °F 45 °F (1913)
Cooling Degree Days 20    
Growing Degree Days 36 (Base 50)    
Moisture  
Dew Point 50 °F    
Average Humidity 31    
Maximum Humidity 53    
Minimum Humidity 17    
Precipitation  
Precipitation 0.00 in - - ()
Sea Level Pressure  
Sea Level Pressure 29.81 in    
Wind  
Wind Speed 12 mph (South)    
Max Wind Speed 23 mph    
Max Gust Speed 32 mph    
Visibility 10 miles    
Events      
Averages and records for this station are not official NWS values.
T = Trace of Precipitation, MM = Missing Value Source: NWS Daily Summary

Daily Weather History Graph

Daily Weather History Graph

Search for Another Location

Airport or City:

Trip Planner

Search our weather history database for the weather conditions in past years. The results will help you decide how hot, cold, wet, or windy it might be!

Date:

Astronomy

Jun. 12, 2013 Rise Set
Actual Time 5:39 AM MDT 8:09 PM MDT
Civil Twilight 5:09 AM MDT 8:39 PM MDT
Nautical Twilight 4:32 AM MDT 9:15 PM MDT
Astronomical Twilight 3:52 AM MDT 9:56 PM MDT
Moon 9:14 AM MDT (6/12) 10:54 PM MDT (6/12)
Length of Visible Light 15h 29m
Length of Day
14h 30m
Waxing Crescent, 14% of the Moon is Illuminated
Jun 12
Waxing Crescent
Jun 16
First Quarter
Jun 23
Full
Jun 29
Last Quarter
Jul 8
New

Hourly Weather History & Observations

Time (MDT) Temp. Heat Index Dew Point Humidity Pressure Visibility Wind Dir Wind Speed Gust Speed Precip Events Conditions
12:53 AM 82.9 °F - 46.0 °F 27% 29.74 in 10.0 mi SSW 23.0 mph 32.2 mph N/A   Clear
1:53 AM 80.1 °F - 46.0 °F 30% 29.76 in 10.0 mi WSW 12.7 mph - N/A   Clear
2:53 AM 79.0 °F - 48.9 °F 35% 29.77 in 10.0 mi SSW 12.7 mph - N/A   Clear
3:53 AM 77.0 °F - 51.1 °F 40% 29.78 in 10.0 mi West 6.9 mph 17.3 mph N/A   Clear
4:53 AM 72.0 °F - 52.0 °F 49% 29.79 in 10.0 mi SW 8.1 mph - N/A   Clear
5:53 AM 71.1 °F - 53.1 °F 53% 29.81 in 10.0 mi SW 9.2 mph - N/A   Clear
6:53 AM 72.0 °F - 54.0 °F 53% 29.83 in 10.0 mi SW 5.8 mph - N/A   Clear
7:53 AM 75.9 °F - 55.0 °F 48% 29.85 in 10.0 mi Calm Calm - N/A   Clear
8:53 AM 81.0 °F 80.5 °F 54.0 °F 39% 29.86 in 10.0 mi West 3.5 mph - N/A   Clear
9:53 AM 84.9 °F - 52.0 °F 32% 29.84 in 10.0 mi NE 3.5 mph - N/A   Clear
10:53 AM 90.0 °F - 50.0 °F 25% 29.84 in 10.0 mi Variable 5.8 mph - N/A   Clear
11:53 AM 93.0 °F - 50.0 °F 23% 29.84 in 10.0 mi East 10.4 mph 23.0 mph N/A   Clear
12:53 PM 93.9 °F - 51.1 °F 23% 29.83 in 10.0 mi East 9.2 mph 18.4 mph N/A   Clear
1:53 PM 96.1 °F - 50.0 °F 21% 29.82 in 10.0 mi SE 10.4 mph 21.9 mph N/A   Clear
2:53 PM 98.1 °F - 50.0 °F 20% 29.79 in 10.0 mi SE 13.8 mph 17.3 mph N/A   Clear
3:53 PM 100.0 °F - 51.1 °F 19% 29.77 in 10.0 mi SSE 11.5 mph 19.6 mph N/A   Clear
4:53 PM 99.0 °F - 46.9 °F 17% 29.78 in 10.0 mi SSE 9.2 mph - N/A   Clear
5:53 PM 99.0 °F - 46.9 °F 17% 29.76 in 10.0 mi SE 15.0 mph - N/A   Clear
6:53 PM 98.1 °F - 46.9 °F 18% 29.77 in 10.0 mi SSE 17.3 mph - N/A   Clear
7:53 PM 93.0 °F - 46.0 °F 20% 29.78 in 10.0 mi SSE 12.7 mph - N/A   Clear
8:53 PM 87.1 °F - 46.0 °F 24% 29.81 in 10.0 mi SE 9.2 mph - N/A   Clear
9:53 PM 84.0 °F - 48.0 °F 28% 29.84 in 10.0 mi South 8.1 mph - N/A   Clear
10:53 PM 82.9 °F - 52.0 °F 34% 29.84 in 10.0 mi South 11.5 mph - N/A   Clear
11:53 PM 82.0 °F 81.3 °F 54.0 °F 38% 29.84 in 10.0 mi SSW 15.0 mph - N/A   Clear